This demonstration page uses our WeatherBlox Daily Observations layout. Learn more.

Left ArrowRight Arrow

53.62937, 11.41316

Hourly Observations for May 11, 2021

Temp ( °F °C ) Dew Point ( °F °C ) Humidity (%) Winds ( mph kmh ) Pressure ( in mb ) Visibility ( mi km ) Precip ( " mm )
5:50 am 05:50 Mostly Sunny 52 11 50 10 94 94 N 5 7 29.83 1010 30 48 N/A
6:20 am 06:20 Mostly Sunny 52 11 50 10 94 94 N 5 7 29.83 1010 30 48 N/A
6:50 am 06:50 Mostly Sunny 52 11 50 10 94 94 NE 8 13 29.83 1010 30 48 N/A
7:20 am 07:20 Partly Cloudy 52 11 50 10 94 94 N 3 6 29.83 1010 30 48 N/A
7:50 am 07:50 Partly Cloudy 52 11 50 10 94 94 NNE 7 11 29.83 1010 30 48 N/A
8:20 am 08:20 Partly Cloudy 54 12 50 10 88 88 N 6 9 29.83 1010 30 48 N/A
8:50 am 08:50 Mostly Cloudy 52 11 50 10 94 94 N 8 13 29.83 1010 30 48 N/A
9:20 am 09:20 Partly Cloudy 54 12 50 10 88 88 N 8 13 29.83 1010 30 48 N/A
9:50 am 09:50 Mostly Cloudy 54 12 50 10 88 88 N 7 11 29.80 1009 30 48 N/A
10:20 am 10:20 Mostly Cloudy 55 13 50 10 82 82 N 9 15 29.80 1009 30 48 N/A
10:50 am 10:50 Mostly Sunny 55 13 48 9 77 77 N 9 15 29.80 1009 7 11 N/A
11:20 am 11:20 Mostly Sunny 55 13 50 10 82 82 N 9 15 29.80 1009 7 11 N/A
11:50 am 11:50 Mostly Sunny 57 14 50 10 77 77 NNE 15 24 29.77 1008 7 11 N/A
12:20 pm 12:20 Mostly Sunny 57 14 48 9 72 72 NNE 14 22 29.77 1008 7 11 N/A
12:50 pm 12:50 Mostly Sunny 59 15 48 9 68 68 NNE 15 24 29.77 1008 7 11 N/A
1:20 pm 13:20 Mostly Sunny 59 15 48 9 68 68 NNE 17 28 29.74 1007 7 11 N/A
1:50 pm 13:50 Mostly Sunny 59 15 50 10 72 72 NE 13 20 29.77 1008 7 11 N/A
2:20 pm 14:20 Mostly Sunny 57 14 48 9 72 72 NNE 13 20 29.77 1008 30 48 N/A
2:50 pm 14:50 Mostly Cloudy 59 15 50 10 72 72 N 12 19 29.77 1008 30 48 N/A
3:20 pm 15:20 Partly Cloudy 59 15 50 10 72 72 N 12 19 29.74 1007 30 48 N/A
3:50 pm 15:50 Mostly Sunny 59 15 50 10 72 72 NNE 15 24 29.74 1007 30 48 N/A
4:20 pm 16:20 Mostly Sunny 59 15 50 10 72 72 NNE 14 22 29.74 1007 30 48 N/A
4:50 pm 16:50 Partly Cloudy 59 15 50 10 72 72 N 12 19 29.74 1007 30 48 N/A
5:20 pm 17:20 Mostly Cloudy 59 15 50 10 72 72 N 9 15 29.74 1007 30 48 N/A
5:50 pm 17:50 Mostly Cloudy 59 15 50 10 72 72 N 8 13 29.74 1007 30 48 N/A
6:20 pm 18:20 Mostly Cloudy 59 15 50 10 72 72 N 7 11 29.74 1007 30 48 N/A
6:50 pm 18:50 Mostly Cloudy 57 14 50 10 77 77 NNW 9 15 29.74 1007 30 48 N/A
7:20 pm 19:20 Partly Cloudy 55 13 48 9 77 77 NNW 10 17 29.74 1007 30 48 N/A
7:50 pm 19:50 Partly Cloudy 55 13 48 9 77 77 N 12 19 29.74 1007 30 48 N/A
8:20 pm 20:20 Mostly Cloudy 54 12 48 9 82 82 N 12 19 29.74 1007 30 48 N/A
8:50 pm 20:50 Mostly Sunny 54 12 48 9 82 82 N 9 15 29.74 1007 30 48 N/A
9:20 pm 21:20 Mostly Clear 54 12 48 9 82 82 NNW 7 11 29.74 1007 7 11 N/A
9:50 pm 21:50 Partly Cloudy 52 11 48 9 88 88 NW 6 9 29.74 1007 30 48 N/A

Powered by AerisWeather